DMSP 5D-2 F11 DEB

Satellite information

Favourite Embed

Satellite Type and Status

DEBRISIN ORBIT

Key statistics

Satellite DMSP 5D-2 F11 DEB at a glance.

Uptime

12216

Days in orbit

Revolutions

≈ 14.6

Per day

Orbit

SSO

Sun Synchronous Orbit

Inclination

98.8

Latest

Satellite identification and parameters

Extended collection of information and parameters for DMSP 5D-2 F11 DEB.

Object identification

Identified? True

Debris? True

Object name: DMSP 5D-2 F11 DEB

International designator: 1991-082CQ

Object number (NORAD): 35534

Object ID (CCSDS): 35534

Country: UNITED STATES OF AMERICA (US)

Current information (Y/N): Y

RCS size: SMALL

Orbital parameters

Period: 98.391 minutes

Inclination: 98.8231 deg

SMA: 7059.87 km

Apoapsis: 706.341 km

Periapsis: 657.129 km

RAAN: 183.8691 deg

Eccentricy: 0.0034853

Argument of periapsis: 194.3662 deg

Mean anomaly: 229.3247 deg

Mean motion: 14.63550558 rev/day

Mean motion (dot): 0.00021547 rev/day2

B* drag term: 0.0041148 1/REarth

Two-line elements (TLE)

Creation date: May 8, 2025, 6:56 a.m.

Reference frame: TEME

Reference center: EARTH

Epoch: May 4, 2025, 9:43 a.m. UTC

TLE line 0: 0 DMSP 5D-2 F11 DEB

TLE line 1: 1 35534U 91082CQ 25124.40496736 .00021547 00000-0 41148-2 0 9992

TLE line 2: 2 35534 98.8231 183.8691 0034853 194.3662 229.3247 14.63550558 82936

Live tracking on map

Real-time ground track for satellite DMSP 5D-2 F11 DEB.

In-orbit conjunctions

A list of the most updated potential collisions computed for object DMSP 5D-2 F11 DEB.

Target Orbit TCA Probability of collision Miss distance Type
CZ-6A DEB LEO 2025-01-29 00:20:30 0.00013445 341.0 (m) DEBRIS

Associated space launch

Military meteorological satellite

DMSP 5D-2 F11 DEB was lifted into orbit during the mission ‘Atlas E | DMSP-5D2 F11’, on board a Atlas E space rocket.

The launch took place on Nov. 28, 1991, 1:23 p.m. from Space Launch Complex 3W.

For more information about the launch, click the button.

Launch to space Atlas E | DMSP-5D2 F11
Atlas E | DMSP-5D2 F11

Agency: N/A

Status: Launch Successful

Launch date: Nov. 28, 1991, 1:23 p.m. UTC

Rocket: Atlas E

Launch pad: Space Launch Complex 3W

Location: Vandenberg SFB, CA, USA

...

Latest news about this satellite

There are no fresh news available about this satellite. Check back as we update our databases every day.


Newsletter sign-up

Weekly statistics, charts and insights to help you stay on top of the space industry.